1294099226389,31.5520
1294099286389,31.5901
1294099346389,31.5149
1294099406389,31.5709
1294099466389,31.4707
1294099526389,31.5370
1294099586389,31.4698
1294099646389,31.4229
1294099706389,31.3515
1294099766389,31.3850
1294099826389,31.3978
1294099886389,31.4406
1294099946389,31.2959
1294100006389,31.3220
1294100066389,31.3372
1294100126389,31.3367
1294100186389,31.3337
1294100246389,31.3193
1294100306389,31.2733
1294100366389,31.3054
1294100426389,31.2727
1294100486389,31.3567
1294100546389,31.2738
1294100606389,31.3008
1294100666389,31.2103
1294100726389,31.3105
1294100786389,31.2906
1294100846389,31.2436
1294100906389,31.3275
1294100966389,31.3032
1294101026389,31.3292
1294101086389,31.2005
1294101146389,31.1807
1294101206389,31.1892
1294101266389,31.3043
1294101326389,31.3936
1294101386389,31.3335
1294101446389,31.4151
1294101506389,31.3448
1294101566389,31.3378
1294101626389,31.2961
1294101686389,31.4888
1294101746389,31.4120
1294101806389,31.3898
1294101866389,31.3807
1294101926389,31.4574
1294101986389,31.5119
1294102046389,31.5028
1294102106389,31.3678
1294102166389,31.4596
1294102226389,31.5289
1294102286389,31.5462
1294102346389,31.4636
1294102406389,31.5636
1294102466389,31.5068
1294102526389,31.4816
1294102586389,31.3916
1294102646389,31.5393
1294102706389,31.4165
1294102766389,31.5490
1294102826399,31.4651
1294102886399,31.3719
1294102946399,31.5337
1294103006399,31.4186
1294103066399,31.4421
1294103126399,31.4242
1294103186399,31.5572
1294103246399,31.4882
1294103306399,31.4401
1294103366399,31.3742
1294103426399,31.3645
1294103486399,31.3205
1294103546399,31.4194
1294103606399,31.4927
1294103666399,31.5044
1294103726399,31.4197
1294103786399,31.4037
1294103846399,31.3854
1294103906399,31.4326
1294103966399,31.3988
1294104026399,31.3852
1294104086399,31.4406
1294104146399,31.4060
1294104206399,31.4886
1294104266399,31.4728
1294104326399,31.3683
1294104386399,31.4925
1294104446399,31.4582
1294104506399,31.3946
1294104566399,31.3700
1294104626399,31.3169
1294104686399,31.4528
1294104746399,31.4824
1294104806399,31.3902
1294104866399,31.4123
1294104926399,31.3563
1294104986399,31.3277
1294105046399,31.3581
1294105106399,31.3846
1294105166399,31.4479
1294105226399,31.3583
1294105286399,31.3674
1294105346399,31.3776
1294105406399,31.3559
1294105466399,31.3919
1294105526399,31.2661
1294105586399,31.4924
1294105646399,31.4787
1294105706399,31.3629
1294105766399,31.3548
1294105826399,31.3915
1294105886399,31.3678
1294105946399,31.3614
1294106006399,31.4831
1294106066399,31.4751
1294106126399,31.4249
1294106186399,31.4350
1294106246399,31.5240
1294106306399,31.4216
1294106366399,31.5808
1294106426409,31.3977
1294106486409,31.5505
1294106546409,31.4823
1294106606409,31.4675
1294106666409,31.5600
1294106726409,31.5046
1294106786409,31.4726
1294106846409,31.4855
1294106906409,31.4599
1294106966409,31.4952
1294107026409,31.4579
1294107086409,31.4425
1294107146409,31.3849
1294107206409,31.3574
1294107266409,31.3994
1294107326409,31.4419
1294107386409,31.4685
1294107446409,31.3877
1294107506409,31.4966
1294107566409,31.4802
1294107626409,31.4311
1294107686409,31.3941
1294107746409,31.4143
1294107806409,31.5102
1294107866409,31.4068
1294107926409,31.4358
1294107986409,31.3441
1294108046409,31.4077
1294108106409,31.4523
1294108166409,31.5577
1294108226409,31.5016
1294108286409,31.4131
1294108346409,31.4507
1294108406409,31.5023
1294108466409,31.5300
1294108526409,31.4573
1294108586409,31.4025
1294108646409,31.4549
1294108706409,31.5256
1294108766409,31.4053
1294108826409,31.4501
1294108886409,31.4817
1294108946409,31.3670
1294109006409,31.5185
1294109066409,31.4851
1294109126409,31.4952
1294109186409,31.5281
1294109246409,31.4768
1294109306409,31.3655
1294109366409,31.4711
1294109426409,31.4266
1294109486409,31.3546
1294109546409,31.4120
1294109606409,31.3171
1294109666409,31.5181
1294109726409,31.3965
1294109786409,31.4955
1294109846409,31.4069
1294109906409,31.3948
1294109966409,31.3325
1294110026420,31.4282
1294110086420,31.4581
1294110146420,31.3782
1294110206420,31.3650
1294110266420,31.4263
1294110326420,31.4759
1294110386420,31.3243
1294110446420,31.3592
1294110506420,31.3974
1294110566420,31.3466
1294110626420,31.4369
1294110686420,31.5043
1294110746420,31.2547
1294110806420,31.3744
1294110866420,31.3532
1294110926420,31.3739
1294110986420,31.3671
1294111046420,31.4373
1294111106420,31.3910
1294111166420,31.2937
1294111226420,31.4030
1294111286420,31.3030
1294111346420,31.3809
1294111406420,31.4156
1294111466420,31.4617
1294111526420,31.3756
1294111586420,31.4286
1294111646420,31.4518
1294111706420,31.3788
1294111766420,31.4352
1294111826420,31.2871
1294111886420,31.2055
1294111946420,31.2191
1294112006420,31.2441
1294112066420,31.3829
1294112126420,31.2945
1294112186420,31.3507
1294112246420,31.2973
1294112306420,31.2877
1294112366420,31.3772
1294112426420,31.2763
1294112486420,31.3106
1294112546420,31.3475
1294112606420,31.3460
1294112666420,31.3103
1294112726420,31.2633
1294112786420,31.3392
1294112846420,31.2579
1294112906420,31.3714
1294112966420,31.3059
1294113026420,31.3139
1294113086420,31.2355
1294113146420,31.2605
1294113206420,31.3585
1294113266420,31.2189
1294113326420,31.2706
1294113386420,31.2127
1294113446420,31.2187
1294113506420,31.1353
1294113566420,31.2851
1294113626430,31.1217
1294113686430,31.1509
1294113746430,31.2409
1294113806430,31.0823
1294113866430,31.1457
1294113926430,31.1837
1294113986430,31.2021
1294114046430,31.1497
1294114106430,31.1495
1294114166430,31.1505
1294114226430,31.3062
1294114286430,31.0786
1294114346430,31.1605
1294114406430,31.1056
1294114466430,31.1834
1294114526430,31.3162
1294114586430,31.0876
1294114646430,31.1289
1294114706430,31.1347
1294114766430,31.0909
1294114826430,31.2111
1294114886430,31.0901
1294114946430,31.1500
1294115006430,31.1529
1294115066430,31.1283
1294115126430,31.0318
1294115186430,31.0627
1294115246430,31.2098
1294115306430,31.1549
1294115366430,31.0947
1294115426430,31.1797
1294115486430,31.1205
1294115546430,31.0947
1294115606430,31.2519
1294115666430,31.1501
1294115726430,31.0699
1294115786430,31.1103
1294115846430,31.0786
1294115906430,31.1271
1294115966430,31.0596
1294116026430,31.0022
1294116086430,31.0611
1294116146430,31.0763
1294116206430,31.0406
1294116266430,31.1271
1294116326430,31.0912
1294116386430,31.0938
1294116446430,31.1632
1294116506430,31.1752
1294116566430,31.1134
1294116626430,31.0911
1294116686430,31.1623
1294116746430,31.1592
1294116806430,30.9948
1294116866430,31.0104
1294116926430,31.1250
1294116986430,31.1196
1294117046430,31.0705
1294117106430,31.0482
1294117166430,31.0950
1294117226441,31.1476
1294117286441,31.0526
1294117346441,31.0765
1294117406441,31.0710
1294117466441,31.0050
1294117526441,31.0297
1294117586441,31.0761
1294117646441,31.0462
1294117706441,31.0449
1294117766441,30.9934
1294117826441,30.9762
1294117886441,31.1395
1294117946441,31.1213
1294118006441,31.0606
1294118066441,31.0647
1294118126441,31.0396
1294118186441,31.1311
1294118246441,31.1127
1294118306441,31.0440
1294118366441,31.1766
1294118426441,31.1115
1294118486441,31.0523
1294118546441,31.0873
1294118606441,31.1196
1294118666441,31.1865
1294118726441,31.1117
1294118786441,31.0897
1294118846441,31.0157
1294118906441,31.0163
1294118966441,31.0662
1294119026441,31.1165
1294119086441,30.9766
1294119146441,31.0583
1294119206441,31.1083
1294119266441,31.0030
1294119326441,31.0373
1294119386441,31.0196
1294119446441,31.0122
1294119506441,31.1440
1294119566441,30.9613
1294119626441,31.0932
1294119686441,31.0391
1294119746441,30.9400
1294119806441,31.0155
1294119866441,30.9447
1294119926441,31.0198
1294119986441,31.0525
1294120046441,31.0167
1294120106441,31.1862
1294120166441,31.0781
1294120226441,30.9340
1294120286441,31.0717
1294120346441,31.1227
1294120406441,31.0588
1294120466441,31.0251
1294120526441,31.0578
1294120586441,31.0636
1294120646441,30.9353
1294120706441,30.9730
1294120766441,31.1110
1294120826452,31.1325
1294120886452,31.1396
1294120946452,31.2070
1294121006452,31.0392
1294121066452,31.2209
1294121126452,31.0974
1294121186452,31.0977
1294121246452,31.0062
1294121306452,31.1612
1294121366452,31.1820
1294121426452,31.1370
1294121486452,31.1541
1294121546452,30.9725
1294121606452,31.1354
1294121666452,31.1914
1294121726452,31.1139
1294121786452,31.2161
1294121846452,31.1675
1294121906452,31.0735
1294121966452,31.1242
1294122026452,31.0099
1294122086452,30.9968
1294122146452,31.0860
1294122206452,31.0827
1294122266452,31.2115
1294122326452,31.0676
1294122386452,31.1588
1294122446452,31.1513
1294122506452,31.1654
1294122566452,31.1362
1294122626452,31.0998
1294122686452,31.1327
1294122746452,31.1375
1294122806452,31.2541
1294122866452,31.1650
1294122926452,31.2516
1294122986452,31.1652
1294123046452,31.1025
1294123106452,31.0707
1294123166452,31.0818
1294123226452,31.1055
1294123286452,31.0763
1294123346452,31.1871
1294123406452,31.3111
1294123466452,31.0947
1294123526452,31.1431
1294123586452,31.0813
1294123646452,31.0653
1294123706452,30.9875
1294123766452,31.1221
1294123826452,30.9883
1294123886452,31.0982
1294123946452,30.9704
1294124006452,31.1452
1294124066452,30.9362
1294124126452,30.9683
1294124186452,31.0084
1294124246452,30.9667
1294124306452,30.9526
1294124366452,31.0114
1294124426463,30.9261
1294124486463,30.9356
1294124546463,30.9564
1294124606463,30.9010
1294124666463,30.9615
1294124726463,30.9991
1294124786463,30.8965
1294124846463,30.9551
1294124906463,31.0432
1294124966463,30.9883
1294125026463,31.1420
1294125086463,31.0127
1294125146463,31.0217
1294125206463,30.9405
1294125266463,30.9863
1294125326463,31.0233
1294125386463,30.9945
1294125446463,30.9074
1294125506463,30.9406
1294125566463,31.0773
1294125626463,31.0199
1294125686463,30.8695
1294125746463,30.8935
1294125806463,30.9951
1294125866463,31.0540
1294125926463,31.0191
1294125986463,30.9271
1294126046463,31.0051
1294126106463,31.0679
1294126166463,31.0444
1294126226463,30.9373
1294126286463,30.9302
1294126346463,30.9740
1294126406463,30.9611
1294126466463,31.0151
1294126526463,30.9588
1294126586463,30.9436
1294126646463,30.9571
1294126706463,31.0469
1294126766463,31.0499
1294126826463,30.9116
1294126886463,31.0048
1294126946463,30.9609
1294127006463,31.1066
1294127066463,31.0915
1294127126463,31.0932
1294127186463,31.0456
1294127246463,31.0255
1294127306463,31.2537
1294127366463,30.9600
1294127426463,31.1441
1294127486463,31.0906
1294127546463,31.1379
1294127606463,31.0120
1294127666463,31.0725
1294127726463,31.0523
1294127786463,31.1890
1294127846463,31.0683
1294127906463,31.1051
1294127966463,31.0509
1294128026474,31.1015
1294128086474,31.1351
1294128146474,30.9851
1294128206474,31.2098
1294128266474,31.1723
1294128326474,30.9860
1294128386474,31.0867
1294128446474,30.9641
1294128506474,31.1596
1294128566474,31.0608
1294128626474,31.1008
1294128686474,31.0878
1294128746474,31.0869
1294128806474,31.0503
1294128866474,31.0642
1294128926474,31.1069
1294128986474,31.0477
1294129046474,31.0928
1294129106474,31.0915
1294129166474,31.0587
1294129226474,31.0998
1294129286474,31.1563
1294129346474,31.0267
1294129406474,31.1911
1294129466474,31.0255
1294129526474,30.9877
1294129586474,31.0385
1294129646474,31.0951
1294129706474,31.1261
1294129766474,31.1212
1294129826474,31.0329
1294129886474,31.1084
1294129946474,31.1969
1294130006474,31.0684
1294130066474,31.1589
1294130126474,31.0419
1294130186474,31.0807
1294130246474,31.1263
1294130306474,31.0910
1294130366474,31.1165
1294130426474,31.0870
1294130486474,31.1555
1294130546474,31.0009
1294130606474,31.0963
1294130666474,31.0415
1294130726474,30.9947
1294130786474,31.0624
1294130846474,31.0371
1294130906474,31.0443
1294130966474,30.9755
1294131026474,31.0346
1294131086474,30.9960
1294131146474,30.9276
1294131206474,30.9796
1294131266474,31.1108
1294131326474,31.0186
1294131386474,30.9319
1294131446474,31.0399
1294131506474,31.0487
1294131566474,31.0014
1294131626486,31.0209
1294131686486,30.9511
1294131746486,31.0114
1294131806486,30.9800
1294131866486,30.9030
1294131926486,30.9652
1294131986486,31.0118
1294132046486,30.8825
1294132106486,30.9699
1294132166486,30.9081
1294132226486,30.8580
1294132286486,30.9684
1294132346486,30.9606
1294132406486,30.9244
1294132466486,30.8154
1294132526486,30.9565
1294132586486,30.9363
1294132646486,30.9304
1294132706486,30.9623
1294132766486,30.8505
1294132826486,30.9976
1294132886486,30.9461
1294132946486,30.9436
1294133006486,30.8974
1294133066486,30.8978
1294133126486,30.9124
1294133186486,30.9656
1294133246486,30.8696
1294133306486,30.9429
1294133366486,30.8699
1294133426486,30.9450
1294133486486,30.9810
1294133546486,30.8481
1294133606486,30.8506
1294133666486,30.9784
1294133726486,30.9915
1294133786486,31.0139
1294133846486,30.9868
1294133906486,30.9294
1294133966486,30.8869
1294134026486,30.9803
1294134086486,30.9743
1294134146486,30.8788
1294134206486,30.9782
1294134266486,30.9357
1294134326486,31.0537
1294134386486,31.0586
1294134446486,31.0421
1294134506486,30.9864
1294134566486,31.0689
1294134626486,31.0239
1294134686486,30.9419
1294134746486,31.0320
1294134806486,31.0650
1294134866486,31.0982
1294134926486,30.9865
1294134986486,31.0174
1294135046486,31.0085
1294135106486,31.0262
1294135166486,30.9935
1294135226497,31.0461
1294135286497,30.9387
1294135346497,30.9880
1294135406497,31.0581
1294135466497,31.0875
1294135526497,30.9313
1294135586497,31.0789
1294135646497,30.9112
1294135706497,31.0419
1294135766497,30.8560
1294135826497,30.9045
1294135886497,30.9647
1294135946497,30.9651
1294136006497,31.0004
1294136066497,30.9985
1294136126497,30.9676
1294136186497,31.0246
1294136246497,31.0174
1294136306497,30.9422
1294136366497,31.0178
1294136426497,30.9785
1294136486497,30.9837
1294136546497,30.9788
1294136606497,31.0843
1294136666497,30.9538
1294136726497,30.9925
1294136786497,31.0280
1294136846497,31.0206
1294136906497,30.9574
1294136966497,30.9737
1294137026497,30.9995
1294137086497,30.9863
1294137146497,30.9759
1294137206497,30.8099
1294137266497,31.0453
1294137326497,31.0102
1294137386497,30.9670
1294137446497,30.9264
1294137506497,30.8857
1294137566497,31.0067
1294137626497,31.0143
1294137686497,30.8219
1294137746497,30.9054
1294137806497,30.9852
1294137866497,30.9836
1294137926497,30.9893
1294137986497,30.9743
1294138046497,31.0366
1294138106497,31.0477
1294138166497,31.0096
1294138226497,31.0639
1294138286497,30.9293
1294138346497,31.1185
1294138406497,30.9379
1294138466497,30.9710
1294138526497,30.9620
1294138586497,31.0044
1294138646497,31.0648
1294138706497,30.9864
1294138766497,30.9209
1294138826509,30.9595
1294138886509,30.9992
1294138946509,30.9243
1294139006509,30.9332
1294139066509,30.8728
1294139126509,31.0628
1294139186509,30.9863
1294139246509,31.0217
1294139306509,30.9898
1294139366509,31.0132
1294139426509,30.9496
1294139486509,30.9221
1294139546509,30.9890
1294139606509,30.9509
1294139666509,30.9465
1294139726509,31.0403
1294139786509,31.0267
1294139846509,31.0276
1294139906509,30.9761
1294139966509,30.9952
1294140026509,30.9129
1294140086509,31.0275
1294140146509,30.9349
1294140206509,31.0155
1294140266509,30.9757
1294140326509,30.9133
1294140386509,30.9216
1294140446509,30.8985
1294140506509,30.9801
1294140566509,31.0159
1294140626509,30.9505
1294140686509,30.9918
1294140746509,30.9314
1294140806509,31.0224
1294140866509,30.9469
1294140926509,31.0579
1294140986509,30.9284
1294141046509,30.8685
1294141106509,30.8828
1294141166509,31.0216
1294141226509,30.9023
1294141286509,30.8685
1294141346509,30.8608
1294141406509,30.7944
1294141466509,30.8154
1294141526509,30.9569
1294141586509,30.8681
1294141646509,30.9206
1294141706509,30.9807
1294141766509,30.9004
1294141826509,30.8340
1294141886509,30.8403
1294141946509,30.9467
1294142006509,30.8936
1294142066509,30.9105
1294142126509,30.9334
1294142186509,30.8562
1294142246509,30.7763
1294142306509,30.9238
1294142366509,30.8537
1294142426521,30.8439
1294142486521,30.8477
1294142546521,30.8553
1294142606521,30.9091
1294142666521,30.8370
1294142726521,30.8796
1294142786521,30.8255
1294142846521,30.7455
1294142906521,30.8681
1294142966521,30.8060
1294143026521,30.8204
1294143086521,30.8781
1294143146521,30.8791
1294143206521,30.7296
1294143266521,30.7023
1294143326521,30.8252
1294143386521,30.8395
1294143446521,30.7161
1294143506521,30.8775
1294143566521,30.6866
1294143626521,30.7958
1294143686521,30.8075
1294143746521,30.7526
1294143806521,30.8998
1294143866521,30.8320
1294143926521,30.8956
1294143986521,30.7507
1294144046521,30.7161
1294144106521,30.7681
1294144166521,30.7657
1294144226521,30.7288
1294144286521,30.7645
1294144346521,30.7509
1294144406521,30.7681
1294144466521,30.7908
1294144526521,30.7597
1294144586521,30.6956
1294144646521,30.7999
1294144706521,30.8358
1294144766521,30.7494
1294144826521,30.7325
1294144886521,30.6608
1294144946521,30.7071
1294145006521,30.8296
1294145066521,30.6652
1294145126521,30.8108
1294145186521,30.8012
1294145246521,30.6886
1294145306521,30.7764
1294145366521,30.7515
1294145426521,30.6332
1294145486521,30.7737
1294145546521,30.7887
1294145606521,30.7830
1294145666521,30.7682
1294145726521,30.7814
1294145786521,30.7152
1294145846521,30.6860
1294145906521,30.7487
1294145966521,30.8336
1294146026532,30.7163
1294146086532,30.7291
1294146146532,30.8688
1294146206532,30.6339
1294146266532,30.7135
1294146326532,30.8194
1294146386532,30.7674
1294146446532,30.7371
1294146506532,30.7727
1294146566532,30.8374
1294146626532,30.8425
1294146686532,30.8719
1294146746532,30.7573
1294146806532,30.7594
1294146866532,30.7508
1294146926532,30.7331
1294146986532,30.6873
1294147046532,30.7516
1294147106532,30.6469
1294147166532,30.7440
1294147226532,30.7659
1294147286532,30.7236
1294147346532,30.7717
1294147406532,30.7143
1294147466532,30.8222
1294147526532,30.7620
1294147586532,30.6925
1294147646532,30.7354
1294147706532,30.7402
1294147766532,30.7106
1294147826532,30.7284
1294147886532,30.8066
1294147946532,30.7748
1294148006532,30.6964
1294148066532,30.6503
1294148126532,30.7380
1294148186532,30.7564
1294148246532,30.7307
1294148306532,30.7808
1294148366532,30.8312
1294148426532,30.7318
1294148486532,30.7867
1294148546532,30.6877
1294148606532,30.6781
1294148666532,30.7521
1294148726532,30.6914
1294148786532,30.7717
1294148846532,30.6849
1294148906532,30.7951
1294148966532,30.7189
1294149026532,30.7304
1294149086532,30.7409
1294149146532,30.7525
1294149206532,30.7281
1294149266532,30.7876
1294149326532,30.7492
1294149386532,30.6725
1294149446532,30.6798
1294149506532,30.6808
1294149566532,30.8091
1294149626544,30.7822
1294149686544,30.7604
1294149746544,30.8465
1294149806544,30.8088
1294149866544,30.7542
1294149926544,30.7780
1294149986544,30.7762
1294150046544,30.8014
1294150106544,30.7238
1294150166544,30.8142
1294150226544,30.7347
1294150286544,30.6504
1294150346544,30.7405
1294150406544,30.6616
1294150466544,30.7041
1294150526544,30.7332
1294150586544,30.8555
1294150646544,30.7148
1294150706544,30.5884
1294150766544,30.7160
1294150826544,30.7619
1294150886544,30.6814
1294150946544,30.7913
1294151006544,30.8134
1294151066544,30.7843
1294151126544,30.7686
1294151186544,30.6426
1294151246544,30.7823
1294151306544,30.7389
1294151366544,30.7369
1294151426544,30.8351
1294151486544,30.7385
1294151546544,30.8138
1294151606544,30.8042
1294151666544,30.7211
1294151726544,30.7158
1294151786544,30.8285
1294151846544,30.7547
1294151906544,30.7866
1294151966544,30.6755
1294152026544,30.7789
1294152086544,30.9916
1294152146544,30.9155
1294152206544,30.7673
1294152266544,30.6947
1294152326544,30.7658
1294152386544,30.7208
1294152446544,30.7911
1294152506544,30.7696
1294152566544,30.6733
1294152626544,30.7621
1294152686544,30.8669
1294152746544,30.8289
1294152806544,30.9071
1294152866544,30.7982
1294152926544,30.8568
1294152986544,30.7566
1294153046544,30.7941
1294153106544,30.8523
1294153166544,30.7727
1294153226556,30.7387
1294153286556,30.7578
1294153346556,30.7602
1294153406556,30.6301
1294153466556,30.7948
1294153526556,30.7708
1294153586556,30.7841
1294153646556,30.8357
1294153706556,30.7624
1294153766556,30.7193
1294153826556,30.8187
1294153886556,30.7755
1294154426556,30.8147
1294154486556,30.8194
1294154546556,30.8390
1294154606556,30.8846
1294154666556,30.8939
1294154726556,30.8702
1294154786556,30.8047
1294154846556,30.8428
1294154906556,30.8085
1294154966556,30.9363
1294155026556,30.9422
1294155086556,30.9547
1294155146556,30.9780
1294155206556,30.8800
1294155266556,30.9113
1294155326556,30.9681
1294155386556,30.8331
1294155446556,30.9709
1294155506556,30.9539
1294155566556,30.9758
1294155626556,30.9987
1294155686556,31.0936
1294155746556,31.0175
1294155806556,30.9627
1294155866556,31.0482
1294155926556,30.8271
1294155986556,30.9377
1294156046556,30.9032
1294156106556,31.0195
1294156166556,31.0250
1294156226556,31.0388
1294156286556,31.2297
1294156346556,30.9354
1294156406556,31.0179
1294156466556,30.9153
1294156526556,31.0003
1294156586556,30.9480
1294156646556,31.0022
1294156706556,31.0208
1294156766556,30.9054
1294156826567,30.9075
1294156886567,31.0366
1294156946567,31.0576
1294157006567,31.0034
1294157066567,31.0835
1294157126567,30.9304
1294157186567,31.1004
1294157246567,31.0210
1294157306567,31.0556
1294157366567,31.0225
1294157426567,30.9529
1294157486567,31.0642
1294157546567,31.0504
1294157606567,30.9691
1294157666567,30.9672
1294157726567,31.0300
1294157786567,30.9821
1294157846567,30.9926
1294157906567,31.0517
1294157966567,30.9672
1294158026567,31.0142
1294158086567,30.9754
1294158146567,30.9962
1294158206567,30.9065
1294158266567,30.9795
1294158326567,31.0681
1294158386567,30.9175
1294158446567,31.0448
1294158506567,31.0507
1294158566567,30.9563
1294158626567,30.9692
1294158686567,31.0407
1294158746567,31.0018
1294158806567,31.0657
1294158866567,30.9304
1294158926567,31.0082
1294158986567,31.0073
1294159046567,30.9831
1294159106567,31.1612
1294159166567,31.0140
1294159226567,30.9662
1294159286567,31.0163
1294159346567,31.0997
1294159406567,30.9274
1294159466567,31.0115
1294159526567,30.9790
1294159586567,30.9447
1294159646567,31.0899
1294159706567,30.9591
1294159766567,30.9638
1294159826567,31.1155
1294159886567,31.0316
1294159946567,31.0323
1294160006567,30.9743
1294160066567,30.8595
1294160126567,30.8439
1294160186567,31.0375
1294160246567,30.9015
1294160306567,31.0834
1294160366567,30.9571
1294160426578,30.9832
1294160486578,30.9885
1294160546578,31.0005
1294160606578,30.9605
1294160666578,31.0294
1294160726578,30.9313
1294160786578,30.8800
1294160846578,31.0156
1294160906578,30.9316
1294160966578,30.9495
1294161026578,30.9764
1294161086578,31.0214
1294161146578,30.9302
1294161206578,31.0030
1294161266578,30.8975
1294161326578,30.9953
1294161386578,30.9895
1294161446578,31.0463
1294161506578,30.9922
1294161566578,31.0643
1294161626578,30.9995
1294161686578,30.9917
1294161746578,31.1252
1294161806578,31.0128
1294161866578,30.9168
1294161926578,30.9694
1294161986578,30.9147
1294162046578,30.9278
1294162106578,30.8874
1294162166578,31.0723
1294162226578,31.0080
1294162286578,30.8927
1294162346578,30.8645
1294162406578,31.0010
1294162466578,30.9732
1294162526578,30.8844
1294162586578,30.8632
1294162646578,30.9927
1294162706578,30.9112
1294162766578,30.9108
1294162826578,30.9060
1294162886578,30.9287
1294162946578,30.9419
1294163006578,30.8456
1294163066578,30.8663
1294163126578,30.7049
1294163186578,30.8242
1294163246578,30.8064
1294163306578,30.7730
1294163366578,30.8174
1294163426578,30.8877
1294163486578,30.8737
1294163546578,30.8342
1294163606578,30.7568
1294163666578,30.8380
1294163726578,30.7735
1294163786578,30.8185
1294163846578,30.7224
1294163906578,30.8263
1294163966578,30.6959
1294164026589,30.7185
1294164086589,30.8041
1294164146589,30.7027
1294164206589,30.7348
1294164266589,30.7096
1294164326589,30.6379
1294164386589,30.8107
1294164446589,30.7865
1294164506589,30.8244
1294164566590,30.6406
1294164626590,30.7136
1294164686589,30.7302
1294164746589,30.6716
1294164806589,30.7023
1294164866589,30.6693
1294164926590,30.7313
1294164986590,30.6007
1294165046590,30.7009